sat.trackr.live / text

‹ back to catalog

STARLINK-4081

NORAD 52660 · 2022-053E

PAYLOAD ACTIVE UNKNOWN

§ Identity

Operator
Country
US
Launch date
2022-05-18
Launch site
AFETR
Launch vehicle
Mass (kg)
RCS (m²)

Purposes: comms

External: N2YO · Heavens-Above · Gunter

§ Orbital elements

Epoch: 2026-09-19T12:56:34.337184Z

Period
94.01 min
Inclination
53.1616°
Eccentricity
0.0001263
Mean motion
15.31704753 rev/d
Perigee alt
469.9 km
Apogee alt
471.6 km
Semi-major
6,848.9 km
B*
2.7963e-5
RAAN
350.2784°
Arg perigee
89.6170°
Mean anomaly
270.4976°
Rev number
24,056

§ Raw data

STARLINK-40811 52660U 22053E   26262.53928631  .00000503  00000+0  27963-4 0  99942 52660  53.1616 350.2784 0001263  89.6170 270.4976 15.31704753240563

JSON: /api/v1/satellites/52660 · /tle

For live sub-satellite position, see the globe view (requires WebGL).

§ Visibility from observer

Set your observer location to see the next 7 days of passes ≥ 10°. The values pass through the URL so the page stays shareable.

No JS? Fill the form by hand. The geolocation button needs JavaScript.